Home > Weather > Sandpoint > Past weeks

Flag for USA Past Weather in Sandpoint, Idaho, USA — Yesterday and Last 2 Weeks

Now
79 °F

Sunny.


Feels Like: 78 °F
Forecast: 54 / 82 °F
Wind: 13 mph from Southwest

Location: Sandpoint Airport

Current Time: Aug 27, 2016 at 1:48:31 PM

Latest Report: Aug 27, 2016 at 1:15 PM


Visibility: 10 mi

Pressure: 29.73 "Hg (27.65 "Hg at 636m altitude)

Humidity: 26%

Dew Point: 41 °F

Location of SandpointLocation

Past Weather in Sandpoint — Graph

°F

Sandpoint Temperature Yesterday

Maximum temperature yesterday: 82 °F (at 4:15 PM)
Minimum temperature yesterday: 57 °F (at 6:35 AM)
Average temperature yesterday: 69 °F

High & Low Weather Summary for the Past Weeks

 TemperatureHumidityPressure
High91 °F (Aug 16, 2:55 PM)100% (Aug 14, 5:15 AM)30.28 "Hg (Aug 14, 5:15 AM)
Low41 °F (Aug 23, 6:15 AM)13% (Aug 21, 2:55 PM)29.63 "Hg (Aug 21, 9:35 PM)
Average67 °F49%30.01 "Hg
* Reported Aug 12 12:15 PM — Aug 27 12:55 PM, Sandpoint, Weather by CustomWeather, © 2016

Note: Actual official high and low records may vary slightly from our data, if they occured in-between our weather recording intervals... More about our weather records

Advertising

Sandpoint Weather History for the Previous 24 Hours

Scroll right to see more
 ConditionsComfort  
Time TempWeatherWind HumidityBarometerVisibility
12:55 PM
Sat, Aug 27
79 °FSunny.10 mph26%29.73 "Hg10 mi
12:35 PM79 °FSunny.12 mph26%29.73 "Hg10 mi
12:15 PM82 °FSunny.13 mph25%29.73 "Hg10 mi
11:55 AM81 °FSunny.8 mph26%29.73 "Hg10 mi
11:35 AM79 °FSunny.8 mph28%29.74 "Hg10 mi
11:15 AM77 °FSunny.10 mph30%29.74 "Hg10 mi
10:55 AM79 °FSunny.8 mph28%29.75 "Hg10 mi
10:35 AM77 °FSunny.6 mph30%29.75 "Hg10 mi
9:55 AM73 °FSunny.6 mph33%29.76 "Hg10 mi
9:35 AM73 °FSunny.6 mph31%29.76 "Hg10 mi
9:15 AM72 °FSunny.7 mph33%29.77 "Hg10 mi
8:55 AM72 °FSunny.3 mph38%29.77 "Hg10 mi
8:15 AM64 °FSunny.6 mph52%29.77 "Hg10 mi
7:55 AM63 °FSunny.6 mph56%29.77 "Hg10 mi
7:15 AM54 °FSunny.3 mph77%29.76 "Hg10 mi
6:55 AM52 °FClear.No wind77%29.76 "Hg10 mi
6:15 AM50 °FClear.3 mph82%29.76 "Hg10 mi
5:55 AM50 °FClear.No wind82%29.76 "Hg10 mi
5:35 AM52 °FClear.No wind77%29.76 "Hg10 mi
5:15 AM52 °FClear.No wind77%29.76 "Hg10 mi
4:55 AM50 °FClear.No wind82%29.76 "Hg10 mi
4:35 AM52 °FClear.5 mph77%29.76 "Hg10 mi
4:15 AM52 °FClear.No wind77%29.77 "Hg10 mi
3:55 AM54 °FClear.No wind77%29.78 "Hg10 mi
3:35 AM55 °FClear.No wind72%29.78 "Hg10 mi
3:15 AM59 °FClear.3 mph63%29.78 "Hg10 mi
2:55 AM59 °FClear.3 mph63%29.78 "Hg10 mi
2:15 AM59 °FClear.No wind68%29.79 "Hg10 mi
1:55 AM59 °FClear.No wind63%29.80 "Hg10 mi
1:15 AM59 °FClear.No wind63%29.81 "Hg10 mi
12:55 AM59 °FClear.No wind63%29.81 "Hg10 mi
12:35 AM59 °FClear.No wind63%29.81 "Hg10 mi
12:15 AM61 °FClear.No wind59%29.81 "Hg10 mi
11:55 PM
Fri, Aug 26
61 °FClear.No wind59%29.81 "Hg10 mi
11:35 PM61 °FClear.No wind63%29.81 "Hg10 mi
11:15 PM63 °FPassing clouds.No wind56%29.82 "Hg10 mi
10:55 PM63 °FClear.No wind56%29.82 "Hg10 mi
10:35 PM63 °FClear.No wind59%29.83 "Hg10 mi
10:15 PM63 °FClear.No wind59%29.83 "Hg10 mi
9:55 PM64 °FClear.No wind52%29.83 "Hg10 mi
9:35 PM64 °FClear.No wind56%29.83 "Hg10 mi
9:15 PM64 °FClear.No wind56%29.84 "Hg10 mi
8:55 PM64 °FClear.No wind56%29.84 "Hg10 mi
8:35 PM66 °FSunny.No wind52%29.84 "Hg10 mi
8:15 PM68 °FSunny.No wind53%29.84 "Hg10 mi
7:55 PM68 °FSunny.No wind53%29.84 "Hg10 mi
7:15 PM72 °FSunny.No wind47%29.84 "Hg10 mi
6:55 PM73 °FSunny.No wind44%29.84 "Hg10 mi
6:35 PM77 °FSunny.No wind32%29.85 "Hg10 mi
6:15 PM77 °FSunny.No wind28%29.86 "Hg10 mi
5:55 PM79 °FSunny.3 mph28%29.86 "Hg10 mi
5:35 PM81 °FSunny.3 mph21%29.87 "Hg10 mi
5:15 PM81 °FScattered clouds.7 mph21%29.87 "Hg10 mi
4:55 PM81 °FScattered clouds.6 mph23%29.87 "Hg10 mi
4:35 PM82 °FScattered clouds.8 mph20%29.88 "Hg10 mi
4:15 PM82 °FScattered clouds.3 mph21%29.89 "Hg10 mi
3:55 PM81 °FScattered clouds.5 mph24%29.90 "Hg10 mi
3:35 PM81 °FSunny.8 mph26%29.90 "Hg10 mi
3:15 PM81 °FScattered clouds.9 mph24%29.91 "Hg10 mi
2:55 PM79 °FScattered clouds.10 mph28%29.91 "Hg10 mi
2:35 PM79 °FScattered clouds.14 mph28%29.92 "Hg10 mi
2:15 PM79 °FSunny.12 mph26%29.94 "Hg10 mi
1:55 PM77 °FSunny.10 mph30%29.95 "Hg10 mi
1:35 PM77 °FSunny.7 mph30%29.96 "Hg10 mi
1:15 PM75 °FSunny.8 mph31%29.97 "Hg10 mi
Weather by CustomWeather, © 2016

See weather overviewHow to use our weather pages